Date String (YYYY-MM-DD hh:mm:ss) UTC,Instrument flags,absolute air pressure of the measurement (hPa),sample flow rate (lpm),inlet stack bypass flow (lpm),air temperature of the measurement (°C),ambient temperature measured by the external sensor (°C),aerosol sample conditioner tube jacket temperature (°C),OPC LED temperature (°C),internal box temperature (°C),relative humidity of the measurement (%),span deviation,mass concentration of particles derived from Lorenz-Mie calculation of OPC scattering (μg/m³),mass concentration of particles derived from Lorenz-Mie calculation of OPC scattering (μg/m³),mass concentration of particles derived from Lorenz-Mie calculation of OPC scattering (μg/m³)
DateTimeUTC,F1_M11,P_M11,Q1_M11,Q2_M11,T1_M11,T2_M11,T3_M11,T4_M11,T5_M11,U1_M11,ZSPAN_M11,X0_M11,X2_M11,X1_M11
2023-10-21 02:00:00,SystemResetWarning,0831.2,4.99,000.00,028.1,025.7,000.0,036.6,029.8,10.2,0000.0,0015.37,0002.71,0000.99
2023-10-21 02:01:00,SystemResetWarning,0831.2,5.00,000.00,028.1,026.0,000.0,036.6,029.8,10.2,0000.0,0015.12,0002.79,0001.00
2023-10-21 02:02:00,SystemResetWarning,0831.2,5.00,000.00,028.1,026.3,000.0,036.6,029.9,10.2,0000.0,0014.76,0002.80,0000.98
2023-10-21 02:03:00,SystemResetWarning,0831.2,5.00,000.00,028.2,026.6,000.0,036.6,029.9,10.2,0000.0,0014.26,0002.71,0000.97
2023-10-21 02:04:00,SystemResetWarning,0831.2,5.00,000.00,028.2,026.8,000.0,036.6,030.0,10.1,0000.0,0014.18,0002.74,0000.95
2023-10-21 02:05:00,SystemResetWarning,0831.2,5.00,000.00,028.2,026.9,000.0,036.6,030.0,10.1,0000.0,0013.75,0002.78,0000.94
2023-10-21 02:06:00,SystemResetWarning,0831.3,5.00,000.00,028.3,027.1,000.0,036.7,030.1,10.1,0000.0,0013.64,0002.86,0000.93
2023-10-21 02:07:00,SystemResetWarning,0831.3,4.99,000.00,028.3,027.2,000.0,036.7,030.1,10.1,0000.0,0013.64,0002.88,0000.92
2023-10-21 02:08:00,SystemResetWarning,0831.3,4.98,000.00,028.3,026.3,000.0,036.7,030.1,10.1,0000.0,0013.54,0002.93,0000.92
2023-10-21 02:09:00,SystemResetWarning,0831.3,5.02,000.00,028.3,024.7,000.0,036.6,029.9,10.2,0000.0,0012.78,0002.94,0000.93
2023-10-21 02:10:00,SystemResetWarning,0831.3,5.00,000.00,028.2,024.5,000.0,036.5,029.8,10.3,0000.0,0012.61,0002.94,0000.94
2023-10-21 02:11:00,SystemResetWarning,0831.3,4.99,000.00,028.1,024.7,000.0,036.5,029.7,10.4,0000.0,0012.38,0002.93,0000.93
2023-10-21 02:12:00,SystemResetWarning,0831.3,5.00,000.00,028.1,025.1,000.0,036.5,029.6,10.3,0000.0,0012.50,0002.99,0000.93
2023-10-21 02:13:00,SystemResetWarning,0831.3,5.01,000.00,028.1,025.5,000.0,036.6,029.7,10.3,0000.0,0012.42,0002.94,0000.93
2023-10-21 02:14:00,SystemResetWarning,0831.3,5.01,000.00,028.1,025.8,000.0,036.6,029.8,10.3,0000.0,0012.39,0003.08,0000.94
2023-10-21 02:15:00,SystemResetWarning,0831.3,4.99,000.00,028.1,026.1,000.0,036.6,029.8,10.3,0000.0,0013.46,0003.14,0000.95
2023-10-21 02:16:00,SystemResetWarning,0831.3,5.00,000.00,028.1,026.4,000.0,036.6,029.9,10.2,0000.0,0013.55,0003.11,0000.95
2023-10-21 02:17:00,SystemResetWarning,0831.3,5.00,000.00,028.1,026.6,000.0,036.6,029.9,10.3,0000.0,0014.00,0003.05,0000.96
2023-10-21 02:18:00,SystemResetWarning,0831.3,5.00,000.00,028.2,026.8,000.0,036.6,030.0,10.3,0000.0,0014.22,0003.00,0000.97
2023-10-21 02:19:00,SystemResetWarning,0831.3,5.00,000.00,028.2,026.9,000.0,036.6,030.0,10.3,0000.0,0014.02,0003.00,0000.97
2023-10-21 02:20:00,SystemResetWarning,0831.3,5.01,000.00,028.2,027.1,000.0,036.6,030.1,10.4,0000.0,0013.79,0002.99,0000.97
2023-10-21 02:21:00,SystemResetWarning,0831.3,5.00,000.00,028.3,027.2,000.0,036.7,030.1,10.3,0000.0,0013.45,0002.91,0000.97
2023-10-21 02:22:00,SystemResetWarning,0831.3,4.99,000.00,028.3,027.3,000.0,036.7,030.2,10.3,0000.0,0012.99,0002.90,0000.97
2023-10-21 02:23:00,SystemResetWarning,0831.3,4.99,000.00,028.4,027.0,000.0,036.7,030.2,10.3,0000.0,0013.25,0002.79,0000.97
2023-10-21 02:24:00,SystemResetWarning,0831.3,5.00,000.00,028.3,025.3,000.0,036.6,030.0,10.3,0000.0,0013.61,0002.76,0000.96
2023-10-21 02:25:00,SystemResetWarning,0831.4,5.01,000.00,028.3,024.4,000.0,036.6,029.9,10.2,0000.0,0013.69,0002.65,0000.95
2023-10-21 02:26:00,SystemResetWarning,0831.3,5.00,000.00,028.2,024.5,000.0,036.6,029.7,10.2,0000.0,0013.03,0002.66,0000.96
2023-10-21 02:27:00,SystemResetWarning,0831.3,5.01,000.00,028.1,024.8,000.0,036.6,029.6,10.2,0000.0,0013.47,0002.69,0000.96
2023-10-21 02:28:00,SystemResetWarning,0831.3,5.00,000.00,028.1,025.2,000.0,036.6,029.7,10.4,0000.0,0013.63,0002.70,0000.96
2023-10-21 02:29:00,SystemResetWarning,0831.4,5.00,000.00,028.1,025.6,000.0,036.6,029.7,10.3,0000.0,0014.76,0002.71,0000.96
2023-10-21 02:30:00,SystemResetWarning,0831.4,5.00,000.00,028.1,025.9,000.0,036.6,029.8,10.2,0000.0,0015.61,0002.69,0000.96
2023-10-21 02:31:00,SystemResetWarning,0831.4,4.99,000.00,028.1,026.2,000.0,036.6,029.9,10.2,0000.0,0015.61,0002.66,0000.96
2023-10-21 02:32:00,SystemResetWarning,0831.4,4.99,000.00,028.1,026.4,000.0,036.6,029.9,10.2,0000.0,0015.71,0002.67,0000.97
2023-10-21 02:33:00,SystemResetWarning,0831.4,5.00,000.00,028.1,026.6,000.0,036.6,029.9,10.2,0000.0,0015.87,0002.77,0000.99
2023-10-21 02:34:00,SystemResetWarning,0831.4,5.00,000.00,028.2,026.8,000.0,036.6,030.0,10.1,0000.0,0015.94,0002.85,0001.02
2023-10-21 02:35:00,SystemResetWarning,0831.4,5.00,000.00,028.2,026.9,000.0,036.6,030.1,10.2,0000.0,0015.03,0002.85,0001.03
2023-10-21 02:36:00,SystemResetWarning,0831.5,5.01,000.00,028.2,027.1,000.0,036.6,030.1,10.1,0000.0,0014.82,0002.87,0001.04
2023-10-21 02:37:00,SystemResetWarning,0831.5,4.98,000.00,028.3,027.2,000.0,036.7,030.1,10.1,0000.0,0014.95,0002.83,0001.03
2023-10-21 02:38:00,SystemResetWarning,0831.5,5.01,000.00,028.3,027.3,000.0,036.7,030.2,10.1,0000.0,0014.63,0002.88,0001.02
2023-10-21 02:39:00,SystemResetWarning,0831.5,5.00,000.00,028.4,027.3,000.0,036.7,030.2,10.1,0000.0,0015.19,0002.89,0001.01
2023-10-21 02:40:00,SystemResetWarning,0831.5,4.99,000.00,028.4,026.3,000.0,036.7,030.2,10.1,0000.0,0014.51,0002.90,0001.01
2023-10-21 02:41:00,SystemResetWarning,0831.5,5.01,000.00,028.3,024.6,000.0,036.7,030.0,10.1,0000.0,0014.01,0002.92,0001.01
2023-10-21 02:42:00,SystemResetWarning,0831.5,5.01,000.00,028.2,024.4,000.0,036.6,029.8,10.1,0000.0,0013.69,0002.90,0001.00
2023-10-21 02:43:00,SystemResetWarning,0831.5,5.00,000.00,028.1,024.6,000.0,036.6,029.6,10.5,0000.0,0013.31,0003.00,0001.01
2023-10-21 02:44:00,SystemResetWarning,0831.5,5.00,000.00,028.1,024.9,000.0,036.6,029.6,10.3,0000.0,0013.00,0002.96,0000.98
2023-10-21 02:45:00,SystemResetWarning,0831.6,5.00,000.00,028.1,025.3,000.0,036.6,029.7,10.3,0000.0,0012.69,0002.84,0000.96
2023-10-21 02:46:00,SystemResetWarning,0831.5,5.00,000.00,028.1,025.7,000.0,036.6,029.7,10.2,0000.0,0013.32,0002.88,0000.95
2023-10-21 02:47:00,SystemResetWarning,0831.5,5.00,000.00,028.1,026.0,000.0,036.6,029.8,10.3,0000.0,0013.18,0002.95,0000.96
2023-10-21 02:48:00,SystemResetWarning,0831.5,5.00,000.00,028.1,026.3,000.0,036.6,029.8,10.2,0000.0,0013.52,0003.07,0000.96
2023-10-21 02:49:00,SystemResetWarning,0831.5,4.99,000.00,028.1,026.5,000.0,036.6,029.9,10.3,0000.0,0013.09,0003.06,0000.98
2023-10-21 02:50:00,SystemResetWarning,0831.5,5.00,000.00,028.2,026.7,000.0,036.6,029.9,10.5,0000.0,0012.67,0003.04,0000.99
2023-10-21 02:51:00,SystemResetWarning,0831.6,5.00,000.00,028.2,026.8,000.0,036.6,030.0,10.6,0000.0,0011.73,0003.07,0001.00
2023-10-21 02:52:00,SystemResetWarning,0831.5,5.00,000.00,028.2,027.0,000.0,036.6,030.0,10.6,0000.0,0011.17,0002.98,0000.98
2023-10-21 02:53:00,SystemResetWarning,0831.5,4.99,000.00,028.3,027.1,000.0,036.7,030.1,10.6,0000.0,0012.00,0002.90,0000.98
2023-10-21 02:54:00,SystemResetWarning,0831.5,4.99,000.00,028.3,027.2,000.0,036.7,030.1,10.6,0000.0,0011.79,0002.83,0000.97
2023-10-21 02:55:00,SystemResetWarning,0831.5,5.00,000.00,028.3,027.3,000.0,036.7,030.2,10.7,0000.0,0011.73,0002.75,0000.96
2023-10-21 02:56:00,SystemResetWarning,0831.5,5.00,000.00,028.4,027.3,000.0,036.7,030.2,10.6,0000.0,0011.72,0002.83,0000.95
2023-10-21 02:57:00,SystemResetWarning,0831.6,5.00,000.00,028.4,027.4,000.0,036.8,030.2,10.6,0000.0,0010.84,0002.82,0000.95
2023-10-21 02:58:00,SystemResetWarning,0831.6,4.99,000.00,028.4,026.6,000.0,036.7,030.2,10.6,0000.0,0010.75,0002.80,0000.93
2023-10-21 02:59:00,SystemResetWarning,0831.6,5.00,000.00,028.4,024.8,000.0,036.7,030.0,10.5,0000.0,0010.91,0002.69,0000.93
